War Admiral — WDB7881 — position and weather

sailwx.info

Track history (hours):
 
Tides and Currents Weather Stations Pressure Air Temp Water Temp Dewpoint Dewpoint Depression Visibility Wind Speed Wind Dir Waves Ship Positions

War Admiral

Owner: POINT MARINE, L.L.C., NEW ORLEANS,, LA. More information available from US FCC via Universal Licensing System and Coast Guard Vessel Documentation Center.

Last reported at 2014-Oct-24 10:32 UTC. Time now 2014-Oct-24 11:25 UTC.
Position N 34°09' W 119°12'.

Length 66 m; draft 3.7 m.

Type: Cargo ship. MMSI: 368164000.

Date/timePositionNaut miles runAvg speedWind from/ knotsBaromVisibWave heightAir tempDewpointWater temp
2014-Oct-24 10:32N 34°09' W 119°12'0 0.0
2014-Oct-24 09:32N 34°09' W 119°12'9 9.6
2014-Oct-24 08:33N 34°11' W 119°23'1211.6
2014-Oct-24 07:33N 34°14' W 119°37'1211.4
2014-Oct-24 06:32N 34°18' W 119°50'1111.3
2014-Oct-24 05:33N 34°21' W 120°03'6 6.2
2014-Oct-24 04:33N 34°23' W 120°10'3 3.0
2014-Oct-24 03:28N 34°22' W 120°14'2 2.3
2014-Oct-24 02:25N 34°21' W 120°17'6 2.8
2014-Oct-24 00:23N 34°23' W 120°10'0 0.0
2014-Oct-23 22:06N 34°23' W 120°10'0 0.0
2014-Oct-23 20:16N 34°23' W 120°10'0 0.0
2014-Oct-23 19:33N 34°23' W 120°10'0 0.0
2014-Oct-23 17:08N 34°23' W 120°10'1 2.3
2014-Oct-23 16:32N 34°23' W 120°09'3 0.6
2014-Oct-23 12:33N 34°23' W 120°05'1111.3
2014-Oct-23 11:33N 34°20' W 119°52'1111.1
2014-Oct-23 10:33N 34°16' W 119°40'1311.1
2014-Oct-23 09:24N 34°12' W 119°25'11 9.3
2014-Oct-23 08:13N 34°09' W 119°12'0 0.0
2014-Oct-23 05:33N 34°09' W 119°12'0 0.0
2014-Oct-23 04:32N 34°09' W 119°12'0 0.0
2014-Oct-23 02:33N 34°09' W 119°12'0 0.0
2014-Oct-23 00:06N 34°09' W 119°12'0 0.0
2014-Oct-22 23:33N 34°09' W 119°12'6 5.5
2014-Oct-22 22:32N 34°10' W 119°19'1312.9
2014-Oct-22 21:33N 34°14' W 119°33'1312.6
2014-Oct-22 20:33N 34°18' W 119°48'1212.3
2014-Oct-22 19:33N 34°21' W 120°02'7 1.2
2014-Oct-22 13:27N 34°23' W 120°11'1 0.4
2014-Oct-22 11:14N 34°23' W 120°10'2 2.8
2014-Oct-22 10:32N 34°23' W 120°12'3 2.6
2014-Oct-22 09:33N 34°24' W 120°09'2 1.7
2014-Oct-22 08:33N 34°25' W 120°07'3 2.7
2014-Oct-22 07:32N 34°23' W 120°10'0 0.3
2014-Oct-22 06:33N 34°23' W 120°10'7 6.9
2014-Oct-22 05:33N 34°21' W 120°02'1312.4
2014-Oct-22 04:33N 34°17' W 119°47'1211.7
2014-Oct-22 03:33N 34°14' W 119°34'16 4.0
2014-Oct-21 23:32N 34°09' W 119°15'15 1.2
2014-Oct-21 11:08N 34°13' W 119°32'711.4
2014-Oct-21 10:33N 34°15' W 119°40'1111.5
2014-Oct-21 09:33N 34°18' W 119°53'1111.0
2014-Oct-21 08:33N 34°22' W 120°06'4 1.7
2014-Oct-21 06:12N 34°23' W 120°10'0 0.0
2014-Oct-21 02:11N 34°23' W 120°10'0 0.0
2014-Oct-21 00:20N 34°23' W 120°10'0 0.0
2014-Oct-20 11:24N 34°23' W 120°10'0 0.0
2014-Oct-20 05:24N 34°23' W 120°10'0 0.0
2014-Oct-20 04:31N 34°23' W 120°10'2 0.7
2014-Oct-20 02:15N 34°23' W 120°08'2 3.4
2014-Oct-20 01:33N 34°23' W 120°11'3 2.5
2014-Oct-20 00:32N 34°23' W 120°08'3 2.6
2014-Oct-19 23:26N 34°22' W 120°04'1112.1
2014-Oct-19 22:33N 34°20' W 119°52'1211.8
2014-Oct-19 21:33N 34°16' W 119°38'7 0.3
2014-Oct-19 01:08N 34°13' W 119°31'812.3
2014-Oct-19 00:31N 34°15' W 119°40'1212.3
2014-Oct-18 23:33N 34°19' W 119°54'1211.7
2014-Oct-18 22:33N 34°22' W 120°07'2 2.0
2014-Oct-18 21:21N 34°23' W 120°10'0 0.0
2014-Oct-18 20:32N 34°23' W 120°10'0 0.0
2014-Oct-18 19:31N 34°23' W 120°10'0 0.0
2014-Oct-18 12:14N 34°23' W 120°10'4 1.3
2014-Oct-18 09:33N 34°23' W 120°06'6 5.6
2014-Oct-18 08:33N 34°23' W 119°59'3 3.2
2014-Oct-18 07:33N 34°23' W 120°03'3 3.1
2014-Oct-18 06:29N 34°23' W 120°07'9 1.4
2014-Oct-18 00:33N 34°20' W 119°57'1212.4
2014-Oct-17 23:33N 34°17' W 119°43'5 0.2
2014-Oct-16 23:10N 34°15' W 119°37'711.9
2014-Oct-16 22:33N 34°17' W 119°45'1211.7
2014-Oct-16 21:33N 34°21' W 119°59'9 0.7
2014-Oct-16 08:08N 34°23' W 120°10'0 0.0
2014-Oct-16 07:23N 34°23' W 120°10'2 2.5
2014-Oct-16 06:32N 34°23' W 120°08'1 0.3
2014-Oct-16 01:31N 34°22' W 120°06'1111.8
2014-Oct-16 00:32N 34°19' W 119°53'1212.3
2014-Oct-15 23:33N 34°17' W 119°39'9 0.4
2014-Oct-15 01:32N 34°18' W 119°50'1111.1
2014-Oct-15 00:33N 34°21' W 120°03'6 5.1
2014-Oct-14 23:17N 34°23' W 120°10'0 0.0
2014-Oct-14 14:32N 34°23' W 120°10'5 3.6
2014-Oct-14 13:12N 34°23' W 120°04'2 2.8
2014-Oct-14 12:32N 34°23' W 120°07'3 2.7
2014-Oct-14 11:33N 34°23' W 120°10'  
Track history (hours):
 
Tides and Currents Weather Stations Pressure Air Temp Water Temp Dewpoint Dewpoint Depression Visibility Wind Speed Wind Dir Waves Ship Positions

War Admiral

Owner: POINT MARINE, L.L.C., NEW ORLEANS,, LA. More information available from US FCC via Universal Licensing System and Coast Guard Vessel Documentation Center.

Last reported at 2014-Oct-24 10:32 UTC. Time now 2014-Oct-24 11:25 UTC.
Position N 34°09' W 119°12'.

Length 66 m; draft 3.7 m.

Type: Cargo ship. MMSI: 368164000.

Date/timePositionNaut miles runAvg speedWind from/ knotsBaromVisibWave heightAir tempDewpointWater temp
2014-Oct-24 10:32N 34°09' W 119°12'0 0.0
2014-Oct-24 09:32N 34°09' W 119°12'9 9.6
2014-Oct-24 08:33N 34°11' W 119°23'1211.6
2014-Oct-24 07:33N 34°14' W 119°37'1211.4
2014-Oct-24 06:32N 34°18' W 119°50'1111.3
2014-Oct-24 05:33N 34°21' W 120°03'6 6.2
2014-Oct-24 04:33N 34°23' W 120°10'3 3.0
2014-Oct-24 03:28N 34°22' W 120°14'2 2.3
2014-Oct-24 02:25N 34°21' W 120°17'6 2.8
2014-Oct-24 00:23N 34°23' W 120°10'0 0.0
2014-Oct-23 22:06N 34°23' W 120°10'0 0.0
2014-Oct-23 20:16N 34°23' W 120°10'0 0.0
2014-Oct-23 19:33N 34°23' W 120°10'0 0.0
2014-Oct-23 17:08N 34°23' W 120°10'1 2.3
2014-Oct-23 16:32N 34°23' W 120°09'3 0.6
2014-Oct-23 12:33N 34°23' W 120°05'1111.3
2014-Oct-23 11:33N 34°20' W 119°52'1111.1
2014-Oct-23 10:33N 34°16' W 119°40'1311.1
2014-Oct-23 09:24N 34°12' W 119°25'11 9.3
2014-Oct-23 08:13N 34°09' W 119°12'0 0.0
2014-Oct-23 05:33N 34°09' W 119°12'0 0.0
2014-Oct-23 04:32N 34°09' W 119°12'0 0.0
2014-Oct-23 02:33N 34°09' W 119°12'0 0.0
2014-Oct-23 00:06N 34°09' W 119°12'0 0.0
2014-Oct-22 23:33N 34°09' W 119°12'6 5.5
2014-Oct-22 22:32N 34°10' W 119°19'1312.9
2014-Oct-22 21:33N 34°14' W 119°33'1312.6
2014-Oct-22 20:33N 34°18' W 119°48'1212.3
2014-Oct-22 19:33N 34°21' W 120°02'7 1.2
2014-Oct-22 13:27N 34°23' W 120°11'1 0.4
2014-Oct-22 11:14N 34°23' W 120°10'2 2.8
2014-Oct-22 10:32N 34°23' W 120°12'3 2.6
2014-Oct-22 09:33N 34°24' W 120°09'2 1.7
2014-Oct-22 08:33N 34°25' W 120°07'3 2.7
2014-Oct-22 07:32N 34°23' W 120°10'0 0.3
2014-Oct-22 06:33N 34°23' W 120°10'7 6.9
2014-Oct-22 05:33N 34°21' W 120°02'1312.4
2014-Oct-22 04:33N 34°17' W 119°47'1211.7
2014-Oct-22 03:33N 34°14' W 119°34'16 4.0
2014-Oct-21 23:32N 34°09' W 119°15'15 1.2
2014-Oct-21 11:08N 34°13' W 119°32'711.4
2014-Oct-21 10:33N 34°15' W 119°40'1111.5
2014-Oct-21 09:33N 34°18' W 119°53'1111.0
2014-Oct-21 08:33N 34°22' W 120°06'4 1.7
2014-Oct-21 06:12N 34°23' W 120°10'0 0.0
2014-Oct-21 02:11N 34°23' W 120°10'0 0.0
2014-Oct-21 00:20N 34°23' W 120°10'0 0.0
2014-Oct-20 11:24N 34°23' W 120°10'0 0.0
2014-Oct-20 05:24N 34°23' W 120°10'0 0.0
2014-Oct-20 04:31N 34°23' W 120°10'2 0.7
2014-Oct-20 02:15N 34°23' W 120°08'2 3.4
2014-Oct-20 01:33N 34°23' W 120°11'3 2.5
2014-Oct-20 00:32N 34°23' W 120°08'3 2.6
2014-Oct-19 23:26N 34°22' W 120°04'1112.1
2014-Oct-19 22:33N 34°20' W 119°52'1211.8
2014-Oct-19 21:33N 34°16' W 119°38'7 0.3
2014-Oct-19 01:08N 34°13' W 119°31'812.3
2014-Oct-19 00:31N 34°15' W 119°40'1212.3
2014-Oct-18 23:33N 34°19' W 119°54'1211.7
2014-Oct-18 22:33N 34°22' W 120°07'2 2.0
2014-Oct-18 21:21N 34°23' W 120°10'0 0.0
2014-Oct-18 20:32N 34°23' W 120°10'0 0.0
2014-Oct-18 19:31N 34°23' W 120°10'0 0.0
2014-Oct-18 12:14N 34°23' W 120°10'4 1.3
2014-Oct-18 09:33N 34°23' W 120°06'6 5.6
2014-Oct-18 08:33N 34°23' W 119°59'3 3.2
2014-Oct-18 07:33N 34°23' W 120°03'3 3.1
2014-Oct-18 06:29N 34°23' W 120°07'9 1.4
2014-Oct-18 00:33N 34°20' W 119°57'1212.4
2014-Oct-17 23:33N 34°17' W 119°43'5 0.2
2014-Oct-16 23:10N 34°15' W 119°37'711.9
2014-Oct-16 22:33N 34°17' W 119°45'1211.7
2014-Oct-16 21:33N 34°21' W 119°59'9 0.7
2014-Oct-16 08:08N 34°23' W 120°10'0 0.0
2014-Oct-16 07:23N 34°23' W 120°10'2 2.5
2014-Oct-16 06:32N 34°23' W 120°08'1 0.3
2014-Oct-16 01:31N 34°22' W 120°06'1111.8
2014-Oct-16 00:32N 34°19' W 119°53'1212.3
2014-Oct-15 23:33N 34°17' W 119°39'9 0.4
2014-Oct-15 01:32N 34°18' W 119°50'1111.1
2014-Oct-15 00:33N 34°21' W 120°03'6 5.1
2014-Oct-14 23:17N 34°23' W 120°10'0 0.0
2014-Oct-14 14:32N 34°23' W 120°10'5 3.6
2014-Oct-14 13:12N 34°23' W 120°04'2 2.8
2014-Oct-14 12:32N 34°23' W 120°07'3 2.7
2014-Oct-14 11:33N 34°23' W 120°10'  

Dump ship's entire track history